Weather History for Artesia, NM

Change the Weather History Date:

Monday, July 1, 2013

  Actual Average Record
Temperature  
Mean Temperature 70 °F -  
Max Temperature 77 °F 93 °F 107 °F (1957)
Min Temperature 62 °F 64 °F 57 °F (1975)
Cooling Degree Days 4    
Growing Degree Days 20 (Base 50)    
Moisture  
Dew Point 63 °F    
Average Humidity 84    
Maximum Humidity 100    
Minimum Humidity 57    
Precipitation  
Precipitation 1.98 in - - ()
Sea Level Pressure  
Sea Level Pressure 30.20 in    
Wind  
Wind Speed 15 mph (NNE)    
Max Wind Speed 36 mph    
Max Gust Speed 46 mph    
Visibility 8 miles    
Events Rain , Thunderstorm    
Averages and records for this station are not official NWS values.
T = Trace of Precipitation, MM = Missing Value Source: NWS Daily Summary

Daily Weather History Graph

Daily Weather History Graph

Search for Another Location

Airport:

Trip Planner

Search our weather history database for the weather conditions in past years. The results will help you decide how hot, cold, wet, or windy it might be!

Date:

Astronomy

Jul. 01, 2013 Rise Set
Actual Time 5:53 AM MDT 8:10 PM MDT
Civil Twilight 5:24 AM MDT 8:38 PM MDT
Nautical Twilight 4:49 AM MDT 9:13 PM MDT
Astronomical Twilight 4:11 AM MDT 9:51 PM MDT
Moon 1:12 AM MDT (7/1) 2:37 PM MDT (7/1)
Length of Visible Light 15h 13m
Length of Day
14h 16m
Waning Crescent, 35% of the Moon is Illuminated
Jul 1
Waning Crescent
Jul 8
New
Jul 15
First Quarter
Jul 22
Full
Jul 29
Last Quarter

Hourly Weather History & Observations

Time (MDT) Temp. Dew Point Humidity Pressure Visibility Wind Dir Wind Speed Gust Speed Precip Events Conditions
12:15 AM 69.8 °F 62.6 °F 78% 30.13 in 9.0 mi NNW 35.7 mph 46.0 mph N/A Rain , Thunderstorm Light Rain
12:35 AM 66.2 °F 64.4 °F 94% 30.15 in 5.0 mi NNW 27.6 mph 36.8 mph 0.02 in Rain , Thunderstorm Rain
12:55 AM 66.2 °F 64.4 °F 94% 30.16 in 5.0 mi NNW 24.2 mph 36.8 mph 0.05 in Thunderstorm Overcast
1:15 AM 64.4 °F 64.4 °F 100% 30.18 in 2.5 mi North 29.9 mph 35.7 mph 0.16 in Rain , Thunderstorm Thunderstorms and Rain
1:35 AM 64.4 °F 64.4 °F 100% 30.18 in 2.0 mi North 26.5 mph 34.5 mph 0.38 in Thunderstorm Overcast
1:55 AM 64.4 °F 64.4 °F 100% 30.20 in 2.0 mi NNW 23.0 mph 31.1 mph 0.52 in Rain , Thunderstorm Heavy Thunderstorms and Rain
2:15 AM 64.4 °F 64.4 °F 100% 30.21 in 1.0 mi North 21.9 mph - 0.32 in Rain , Thunderstorm Heavy Thunderstorms and Rain
2:35 AM 62.6 °F 62.6 °F 100% 30.22 in 1.8 mi NW 16.1 mph - 0.67 in Rain , Thunderstorm Heavy Thunderstorms and Rain
2:55 AM 62.6 °F 62.6 °F 100% 30.21 in 5.0 mi NNW 11.5 mph - 0.77 in Rain , Thunderstorm Rain
3:15 AM 64.4 °F 64.4 °F 100% 30.22 in 3.0 mi North 11.5 mph - 0.04 in Rain , Thunderstorm Heavy Rain
3:35 AM 64.4 °F 64.4 °F 100% 30.22 in 3.0 mi North 10.4 mph - 0.10 in Rain Heavy Rain
3:55 AM 64.4 °F 64.4 °F 100% 30.21 in 5.0 mi North 9.2 mph - 0.20 in Rain Rain
4:15 AM 64.4 °F 64.4 °F 100% 30.21 in 4.0 mi North 8.1 mph - 0.04 in Rain Heavy Rain
4:35 AM 62.6 °F 62.6 °F 100% 30.21 in 4.0 mi North 9.2 mph - 0.10 in Rain Rain
4:55 AM 62.6 °F 62.6 °F 100% 30.21 in 5.0 mi North 6.9 mph - 0.14 in Rain Rain
5:15 AM 62.6 °F 62.6 °F 100% 30.21 in 5.0 mi WSW 3.5 mph - 0.03 in Rain Rain
5:35 AM 62.6 °F 62.6 °F 100% 30.22 in 7.0 mi NNE 3.5 mph - 0.05 in Rain Light Rain
5:55 AM 62.6 °F 62.6 °F 100% 30.23 in 7.0 mi North 5.8 mph - 0.06 in Rain Light Rain
6:15 AM 62.6 °F 62.6 °F 100% 30.23 in 7.0 mi NE 5.8 mph - N/A Rain Light Rain
6:35 AM 62.6 °F 62.6 °F 100% 30.23 in 7.0 mi ENE 5.8 mph - 0.02 in Rain Light Rain
6:55 AM 64.4 °F 64.4 °F 100% 30.23 in 10.0 mi ENE 4.6 mph - 0.03 in Rain Light Rain
7:15 AM 64.4 °F 64.4 °F 100% 30.24 in 10.0 mi NE 6.9 mph - N/A   Scattered Clouds
7:35 AM 64.4 °F 64.4 °F 100% 30.23 in 10.0 mi NNE 6.9 mph - N/A   Mostly Cloudy
7:55 AM 64.4 °F 64.4 °F 100% 30.23 in 10.0 mi North 5.8 mph - N/A   Partly Cloudy
8:15 AM 64.4 °F 64.4 °F 100% 30.24 in 10.0 mi North 5.8 mph - N/A   Clear
8:35 AM 66.2 °F 64.4 °F 94% 30.24 in 10.0 mi NNW 5.8 mph - N/A   Partly Cloudy
8:55 AM 66.2 °F 62.6 °F 88% 30.24 in 10.0 mi NNW 6.9 mph - N/A   Scattered Clouds
9:15 AM 68.0 °F 62.6 °F 83% 30.24 in 10.0 mi North 5.8 mph - N/A   Partly Cloudy
9:35 AM 68.0 °F 62.6 °F 83% 30.24 in 10.0 mi NNW 5.8 mph - N/A   Partly Cloudy
9:55 AM 69.8 °F 62.6 °F 78% 30.24 in 10.0 mi NW 6.9 mph - N/A   Partly Cloudy
10:15 AM 69.8 °F 62.6 °F 78% 30.25 in 10.0 mi NNW 5.8 mph - N/A   Mostly Cloudy
10:35 AM 69.8 °F 59.0 °F 68% 30.25 in 10.0 mi NW 3.5 mph - N/A   Mostly Cloudy
10:55 AM 71.6 °F 59.0 °F 64% 30.25 in 10.0 mi North 3.5 mph - N/A   Partly Cloudy
11:35 AM 73.4 °F 59.0 °F 61% 30.23 in 10.0 mi East 4.6 mph - N/A   Partly Cloudy
11:55 AM 73.4 °F 60.8 °F 65% 30.22 in 10.0 mi South 3.5 mph - N/A   Scattered Clouds
12:15 PM 73.4 °F 59.0 °F 61% 30.22 in 10.0 mi Calm Calm - N/A   Mostly Cloudy
12:35 PM 73.4 °F 60.8 °F 65% 30.23 in 10.0 mi ESE 12.7 mph 18.4 mph N/A   Overcast
12:55 PM 68.0 °F 64.4 °F 88% 30.23 in 3.0 mi SE 12.7 mph - 0.04 in Rain Rain
1:15 PM 66.2 °F 64.4 °F 94% 30.22 in 3.0 mi SSE 12.7 mph - 0.09 in   Mostly Cloudy
1:35 PM 68.0 °F 64.4 °F 88% 30.22 in 10.0 mi SSE 10.4 mph - 0.09 in   Overcast
1:55 PM 68.0 °F 62.6 °F 83% 30.20 in 10.0 mi SSE 11.5 mph - 0.09 in   Overcast
2:15 PM 71.6 °F 62.6 °F 73% 30.20 in 10.0 mi SSE 11.5 mph - N/A   Mostly Cloudy
2:35 PM 73.4 °F 62.6 °F 69% 30.19 in 10.0 mi SSE 9.2 mph - N/A   Partly Cloudy
2:55 PM 73.4 °F 62.6 °F 69% 30.18 in 10.0 mi South 10.4 mph - N/A   Clear
3:15 PM 75.2 °F 60.8 °F 61% 30.17 in 10.0 mi South 8.1 mph - N/A   Partly Cloudy
3:35 PM 75.2 °F 62.6 °F 65% 30.16 in 10.0 mi SSE 10.4 mph - N/A   Partly Cloudy
3:55 PM 75.2 °F 60.8 °F 61% 30.15 in 10.0 mi SSE 8.1 mph - N/A   Clear
4:15 PM 75.2 °F 62.6 °F 65% 30.15 in 10.0 mi SE 8.1 mph - N/A   Scattered Clouds
4:35 PM 77.0 °F 62.6 °F 61% 30.14 in 10.0 mi SSE 9.2 mph - N/A   Partly Cloudy
4:55 PM 75.2 °F 60.8 °F 61% 30.14 in 10.0 mi SE 6.9 mph - N/A   Partly Cloudy
5:15 PM 75.2 °F 60.8 °F 61% 30.13 in 10.0 mi SE 10.4 mph - N/A   Clear
5:35 PM 75.2 °F 59.0 °F 57% 30.13 in 10.0 mi South 4.6 mph - N/A   Clear
5:55 PM 75.2 °F 60.8 °F 61% 30.13 in 10.0 mi South 8.1 mph - N/A   Clear
6:15 PM 77.0 °F 60.8 °F 57% 30.13 in 10.0 mi SSE 9.2 mph - N/A   Clear
6:35 PM 77.0 °F 60.8 °F 57% 30.14 in 10.0 mi SE 9.2 mph - N/A   Clear
6:55 PM 75.2 °F 59.0 °F 57% 30.15 in 10.0 mi SE 8.1 mph - N/A   Clear
7:15 PM 75.2 °F 59.0 °F 57% 30.16 in 10.0 mi SE 6.9 mph - N/A   Clear
7:35 PM 75.2 °F 60.8 °F 61% 30.18 in 10.0 mi SE 5.8 mph - N/A   Clear
7:55 PM 75.2 °F 62.6 °F 65% 30.18 in 10.0 mi SE 5.8 mph - N/A   Partly Cloudy
8:15 PM 73.4 °F 64.4 °F 73% 30.20 in 9.0 mi NNE 8.1 mph - 0.01 in Rain Light Rain
8:35 PM 66.2 °F 64.4 °F 94% 30.21 in 7.0 mi North 15.0 mph - 0.03 in Rain Rain
8:55 PM 66.2 °F 66.2 °F 100% 30.18 in 9.0 mi West 8.1 mph - 0.07 in Rain Light Rain
9:15 PM 66.2 °F 66.2 °F 100% 30.19 in 10.0 mi NE 3.5 mph - N/A Rain Light Rain
9:35 PM 68.0 °F 64.4 °F 88% 30.20 in 10.0 mi ENE 6.9 mph - N/A   Partly Cloudy
9:55 PM 66.2 °F 66.2 °F 100% 30.21 in 10.0 mi NE 11.5 mph - N/A   Clear
10:15 PM 66.2 °F 66.2 °F 100% 30.21 in 10.0 mi North 8.1 mph - N/A   Clear
10:35 PM 66.2 °F 66.2 °F 100% 30.22 in 10.0 mi NNE 8.1 mph - N/A   Clear
10:55 PM 66.2 °F 66.2 °F 100% 30.22 in 10.0 mi NNW 9.2 mph - 0.01 in   Clear
11:15 PM 64.4 °F 64.4 °F 100% 30.22 in 10.0 mi NNW 12.7 mph - N/A   Clear
11:35 PM 64.4 °F 64.4 °F 100% 30.23 in 10.0 mi NNW 12.7 mph - N/A   Partly Cloudy
11:55 PM 64.4 °F 62.6 °F 94% 30.23 in 10.0 mi NW 11.5 mph - N/A   Clear